Location: River House Observatory
(37.8577°N, 76.3548°W)
Time: 09:42:05
(UTC-05:00)

Hubble Space Telescope - Visible Passes

Search period start: 21 January 2018 00:00
Search period end: 31 January 2018 00:00
Orbit: 537 x 541 km, 28.5° (Epoch: 20 January)

Date Brightness Start Highest point End Pass type
(mag) Time Alt. Az. Time Alt. Az. Time Alt. Az.
22 Jan 3.2 19:07:11 10° S 19:08:34 12° SSE 19:08:34 12° SSE visible
23 Jan 3.0 18:56:13 10° SSW 18:58:23 14° SSE 18:58:58 14° SSE visible
24 Jan 2.9 18:45:28 10° SSW 18:48:01 16° SSE 18:49:22 14° SE visible
25 Jan 2.8 18:34:51 10° SSW 18:37:39 18° S 18:39:46 13° SE visible
25 Jan 3.9 20:15:04 10° SW 20:15:07 10° SW 20:15:07 10° SW visible
26 Jan 2.8 18:24:18 10° SW 18:27:17 19° S 18:30:09 10° SE visible
26 Jan 3.6 20:04:46 10° SW 20:05:31 13° SW 20:05:31 13° SW visible
27 Jan 2.7 18:13:50 10° SW 18:16:56 21° S 18:20:02 10° SE visible
27 Jan 3.3 19:54:30 10° SW 19:55:55 16° SW 19:55:55 16° SW visible
28 Jan 2.7 18:03:24 10° SW 18:06:35 21° S 18:09:46 10° SE visible
28 Jan 3.1 19:44:18 10° SW 19:46:21 18° SSW 19:46:21 18° SSW visible
29 Jan 2.8 17:53:01 10° SW 17:56:14 22° S 17:59:27 10° SE visible
29 Jan 3.0 19:34:08 10° SW 19:36:50 17° SSW 19:36:50 17° SSW visible
30 Jan 3.1 19:24:03 10° SW 19:26:29 15° SSW 19:27:22 14° S visible
